Location: Schommer Observatory
(40.5200°N, 74.4500°W)
Time: 05:48:14
(UTC-04:00)

ISS - Pass Details

Date: 18 May 2018
Orbit: 402 x 407 km, 51.6° (Epoch: 27 May)

Event Time Altitude Azimuth Distance (km) Brightness Sun altitude
Exits shadow 01:58:38 10° 331° (NNW) 1,433 -0.6 -28.1°
Maximum altitude 01:59:55 12° 355° (N) 1,329 -0.5 -28.0°
Drops below altitude 10° 02:01:21 10° 21° (NNE) 1,458 0.0 -27.9°
Sets 02:04:27 0° 53° (NE) 2,318 0.8 -27.7°
